Regional Weather Roundup
Issued by NWS

Home | Current Version | Previous Version | Graphics & Text | Print | Product List | Glossary On
Versions: 1 2 3 4 5 6 7 8 9 10 11 12 13 14 15 16 17 18 19 20 21 22 23 24 25 26 27 28 29 30 31 32 33 34 35 36 37 38 39 40 41 42 43 44 45 46 47 48 49 50
000
ASUS43 KIND 120759
RWRIN

WEATHER ROUNDUP FOR INDIANA
NATIONAL WEATHER SERVICE INDIANAPOLIS IN
300 AM EST FRI FEB 12 2016

NOTE: "FAIR" INDICATES FEW OR NO CLOUDS BELOW 12,000 FEET WITH NO
SIGNIFICANT WEATHER AND/OR OBSTRUCTIONS TO VISIBILITY.

* - STATION DOES NOT REPORT WEATHER SUCH AS PRECIPITATION OR FOG.

+ - STATION NOT QUALITY CONTROLLED BY THE NATIONAL WEATHER SERVICE.
    USE DATA WITH CAUTION...ESPECIALLY DEWPOINT AND RELATIVE
    HUMIDITY OBSERVATIONS.

INZ001>003-010>013-019-020-120900-
NORTHWEST INDIANA

CITY           SKY/WX    TMP DP  RH WIND       PRES   REMARKS
GARY /AIRPORT/ CLOUDY    20   9  62 CALM      30.21F
MONTICELLO +   CLOUDY    17  10  74 SW3       30.22F
RENSSELAER +   CLOUDY    21   9  58 SW5       30.22F WCI  15

$$

LMZ046-743>745-120900-
SOUTHERN LAKE MICHIGAN

STATION/POSITION TIME  TEMP    WIND        PRES    WAVE
                       AIR SEA DIR/SP/G            HT
                 (UTC) (F)     (DEG/KT/KT) (MB)    (FT)
BURNS HARBOR     0700   19     220/  7/  9 1023.7F
MICHIGAN CITY    0700   18     190/ 12/ 14   N/A

$$

INZ004-005-014>016-021>024-120900-
NORTH CENTRAL INDIANA

CITY           SKY/WX    TMP DP  RH WIND       PRES   REMARKS
GOSHEN         CLOUDY    10   5  80 CALM      30.19F
SOUTH BEND     CLOUDY    10   5  80 SW7       30.19F WCI  -1

$$

INZ006>009-017-018-025>027-120900-
NORTHEAST INDIANA

CITY           SKY/WX    TMP DP  RH WIND       PRES   REMARKS
ANGOLA *+      MOCLDY     1  -2  85 CALM      30.16F
FORT WAYNE     MOCLDY    12   6  77 SW6       30.21F WCI   3

$$

INZ028-029-035-036-043>045-051>053-120900-
WEST CENTRAL INDIANA

CITY           SKY/WX    TMP DP  RH WIND       PRES   REMARKS
GREENCASTLE +  MOCLDY    19  10  68 CALM      30.22F
LAFAYETTE      CLOUDY    16  11  80 CALM      30.22F
TERRE HAUTE    PTCLDY    18  13  80 NE3       30.22F

$$

INZ030>032-037>040-046>048-054>057-064-065-120900-
CENTRAL INDIANA

CITY           SKY/WX    TMP DP  RH WIND       PRES   REMARKS
FRANKFORT +    PTCLDY    18   6  59 CALM      30.23F
GREENWOOD *+   MOCLDY    19  14  79 CALM      30.23F
INDIANAPOLIS   MOCLDY    20   9  62 CALM      30.21F
-EAGLE CREEK   CLOUDY    20  13  74 CALM      30.21F
KOKOMO *+      CLOUDY    12   9  85 S3        30.21F
MT COMFORT *+  CLOUDY    18  10  73 S3        30.22F
SHELBYVILLE    CLOUDY    18  10  71 NE3       30.22F

$$

INZ033-034-041-042-049-050-058-059-120900-
EAST CENTRAL INDIANA

CITY           SKY/WX    TMP DP  RH WIND       PRES   REMARKS
MUNCIE         MOCLDY    12   7  80 CALM      30.21F

$$

INZ060-061-067>069-081>083-085>088-120900-
SOUTHWEST INDIANA

CITY           SKY/WX    TMP DP  RH WIND       PRES   REMARKS
EVANSVILLE     CLOUDY    29  13  51 CALM      30.23F
HUNTINGBURG *+ CLOUDY    27  12  54 NE6       30.21F WCI  20

$$

INZ062-063-066-070>080-084-089>092-120900-
SOUTH CENTRAL AND SOUTHEAST INDIANA

CITY           SKY/WX    TMP DP  RH WIND       PRES   REMARKS
BLOOMINGTON    CLOUDY    20  12  71 CALM      30.21F
MADISON *+     PTCLDY    21  10  63 NE5       30.23F WCI  15
SEYMOUR +      PTCLDY    23  12  63 E3        30.24F

$$




USA.gov is the U.S. government's official web portal to all federal, state and local government web resources and services.